[[{"header":{"parameterUnit":"m.s-1","parameterCategory":1,"la1":30.2991,"la2":30.254,"lo1":-89.0895,"lo2":-89.0444,"dy":0.0017,"dx":0.0017,"nx":28,"ny":28,"refTime":"2023-08-17T21:00:00:Z","depth":0,"parameterNumber":2,"parameterNumberName":"U-component_of_WINDS"},"data":[0,0,0,0,0,0,0,0,0,0,0,0,0,0,0,0,0,0,0,0,0,0,0,0,0,0,0,0,0,0,0,0,0,0,0,0,0,0,0,0,0,0,0,0,0,0,0,0,0,0,0,0,0,0,0,0,0,0,3.6491,3.6492,0,3.6598,3.66,3.6601,3.661,3.6609,3.6608,3.6607,3.6718,3.6722,3.6726,0,0,0,0,0,0,0,0,0,0,0,0,0,3.6296,3.6299,3.6491,3.6492,3.6494,3.6598,3.66,3.6601,3.661,3.6609,3.6608,3.6606,3.6717,3.6722,3.6727,0,0,0,0,0,0,0,0,0,0,0,0,0,3.639,3.6301,3.6491,3.6511,3.6514,3.6598,3.66,3.6601,3.6611,3.6609,3.6607,3.6606,3.6715,3.6721,3.6727,3.6799,0,0,3.6746,3.6748,0,0,0,0,0,0,0,0,3.6384,3.6397,3.6506,3.6509,3.6513,3.6589,3.6572,3.6668,3.6611,3.6574,3.6607,3.6605,3.6677,3.6686,3.671,3.6804,3.6809,3.6746,3.675,3.6752,3.6754,0,0,0,0,0,0,0,3.6378,3.6392,3.6533,3.6508,3.6512,3.6515,3.6527,3.659,3.6634,3.6577,3.6578,3.659,3.6678,3.6704,3.6713,3.6811,3.6746,3.6751,3.6755,3.6758,3.6971,3.6973,0,0,0,0,0,0,3.6367,3.6387,3.653,3.6537,3.6443,3.652,3.6533,3.6566,3.6633,3.6641,3.6592,3.659,3.6694,3.6705,3.6716,3.6806,3.6752,3.6758,3.6762,3.6969,3.6972,3.6974,0,0,0,0,0,0,3.6363,3.638,3.6526,3.6462,3.6481,3.6525,3.6563,3.6569,3.6595,3.6644,3.6652,3.661,3.6694,3.6708,3.6779,3.681,3.6761,3.6766,3.6967,3.697,3.6973,3.6984,0,0,0,0,0,0,3.6357,3.6378,3.6406,3.6463,3.6484,3.6585,3.6565,3.6573,3.6605,3.6605,3.6663,3.6671,3.6693,3.677,3.6785,3.6817,3.6771,3.6964,3.6968,3.6972,3.6981,3.6987,3.6993,0,0,0,0,0,3.635,3.6405,3.6407,3.6424,3.6519,3.6587,3.6599,3.6623,3.6608,3.6636,3.6668,3.667,3.6804,3.6777,3.6794,3.6829,3.6962,3.6967,3.6971,3.6979,3.6986,3.6992,0,0,0,0,0,0,3.635,3.6412,3.6416,3.649,3.6533,3.6588,3.6624,3.663,3.6679,3.6676,3.6704,3.6717,3.6787,3.6815,3.6784,3.6903,3.6882,3.689,3.6881,3.6889,3.6894,3.6886,3.6776,0,0,0,0,0,3.6359,3.6408,3.646,3.6521,3.6542,3.658,3.661,3.6625,3.6671,3.6689,3.6726,3.6772,3.6824,3.6858,3.6909,3.6986,3.6999,3.7018,3.7024,3.7028,3.7035,3.7079,3.7088,3.6989,3.6989,3.6989,0,0,3.6377,3.6417,3.6447,3.6522,3.6557,3.6608,3.6595,3.665,3.6688,3.6698,3.6767,3.6796,3.6848,3.6922,3.6957,3.6948,3.7065,3.7034,3.7037,3.7042,3.7084,3.7094,3.7102,3.6992,3.6991,3.6991,0,0,3.6436,3.6471,3.6526,3.6562,3.6615,3.664,3.6653,3.6708,3.6728,3.6797,3.6806,3.6853,3.6943,3.698,3.7011,3.7086,3.709,3.7102,3.7131,3.7173,3.7181,3.7188,3.7215,3.7225,3.7108,3.7108,3.7108,0,3.6452,3.6529,3.6553,3.6608,3.6641,3.6652,3.6708,3.6742,3.681,3.6833,3.6822,3.6935,3.6971,3.7055,3.7073,3.7098,3.7114,3.7095,3.7178,3.7185,3.7192,3.7218,3.7229,3.711,3.7109,3.7109,3.7109,0,3.6546,3.66,3.6638,3.6703,3.674,3.6795,3.6829,3.6864,3.6876,3.6902,3.6974,3.7017,3.7078,3.7099,3.7111,3.7185,3.7178,3.7172,3.7151,3.7202,3.7227,3.7238,3.7111,3.7111,3.711,3.711,0,0,3.6608,3.6686,3.6699,3.673,3.679,3.6832,3.6889,3.6948,3.6978,3.7025,3.7073,3.7149,3.7145,3.718,3.7196,3.7233,3.7291,3.7223,3.7225,3.7234,3.7376,3.738,3.7391,3.7294,3.7296,3.7297,3.7371,0,3.6674,3.6774,3.6798,3.6883,3.6934,3.6946,3.6995,3.7038,3.7064,3.7112,3.7141,3.7195,3.7184,3.7206,3.7243,3.7276,3.7319,3.7271,3.734,3.7342,3.7326,3.7404,3.7408,3.7476,3.7381,3.7383,3.7384,0,3.6765,3.6813,3.6904,3.6959,3.6981,3.7025,3.7081,3.7126,3.7176,3.7192,3.7232,3.7245,3.7305,3.7282,3.7366,3.7332,3.7362,3.7383,3.7386,3.7393,3.7366,3.7414,3.7498,3.7508,3.74,3.7399,3.7398,0,3.6801,3.6889,3.6955,3.698,3.7046,3.7077,3.7106,3.7153,3.7188,3.7237,3.726,3.7316,3.7347,3.7391,3.7419,3.74,3.7501,3.748,3.7517,3.7517,3.7538,3.7536,3.7628,3.7557,3.7557,3.7557,3.7557,0,3.6873,3.6928,3.6972,3.7013,3.7075,3.7103,3.7164,3.7194,3.7236,3.7283,3.7297,3.7341,3.7376,3.7425,3.7448,3.7514,3.7528,3.7544,3.7549,3.7543,3.7541,3.7563,3.7559,3.756,3.7559,3.7558,3.7558,0,3.6923,3.6955,3.7028,3.7085,3.71,3.7144,3.7192,3.7233,3.726,3.7319,3.7335,3.7378,3.7437,3.7469,3.7543,3.7559,3.7633,3.7636,3.7616,3.7618,3.7654,3.765,3.7763,3.778,3.7697,3.7698,3.7698,0,3.6967,3.701,3.7071,3.7103,3.7133,3.7185,3.722,3.7249,3.7285,3.7345,3.7379,3.7438,3.7487,3.7581,3.7619,3.7676,3.7681,3.7716,3.7689,3.7682,3.7682,3.7679,3.7684,3.7721,3.7722,3.7722,3.7723,0,3.7041,3.7055,3.7105,3.7161,3.7202,3.7248,3.7293,3.7319,3.7356,3.7396,3.7456,3.7494,3.757,3.7629,3.7689,3.772,3.7728,3.7731,3.7743,3.7737,3.7723,3.7732,3.7629,3.7728,3.7728,3.7727,3.7727,3.7727,3.709,3.7129,3.7179,3.7234,3.7271,3.7313,3.7354,3.7386,3.7437,3.75,3.7515,3.7578,3.7628,3.7709,3.7742,3.7793,3.7786,3.7803,3.7807,3.7811,3.7812,3.7715,3.7804,3.7804,3.7803,3.7803,3.7803,0,3.7166,3.7198,3.7249,3.7312,3.7356,3.7359,3.7409,3.7446,3.7502,3.7547,3.7595,3.7665,3.7723,3.7766,3.7825,3.7857,3.7863,3.7872,3.787,3.7877,3.7815,3.7799,3.7867,3.7867,3.7867,3.7867,3.7867,3.7867,3.721,3.7277,3.7297,3.7382,3.7414,3.7476,3.7505,3.7544,3.758,3.7657,3.7705,3.7733,3.7778,3.784,3.7894,3.7905,3.7927,3.7936,3.7947,3.7888,3.7881,3.7875,3.786,3.794,3.794,3.8006,3.8006,3.8007]},{"header":{"parameterUnit":"m.s-1","parameterCategory":1,"la1":30.2991,"la2":30.254,"lo1":-89.0895,"lo2":-89.0444,"dy":0.0017,"dx":0.0017,"nx":28,"ny":28,"refTime":"2023-08-17T21:00:00:Z","depth":0,"parameterNumber":3,"parameterNumberName":"V-component_of_WINDS"},"data":[0,0,0,0,0,0,0,0,0,0,0,0,0,0,0,0,0,0,0,0,0,0,0,0,0,0,0,0,0,0,0,0,0,0,0,0,0,0,0,0,0,0,0,0,0,0,0,0,0,0,0,0,0,0,0,0,0,0,-0.6748,-0.6749,0,-0.6759,-0.676,-0.676,-0.6773,-0.6773,-0.6773,-0.6773,-0.6784,-0.6784,-0.6784,0,0,0,0,0,0,0,0,0,0,0,0,0,-0.674,-0.674,-0.6748,-0.6749,-0.6749,-0.6759,-0.676,-0.676,-0.6773,-0.6773,-0.6773,-0.6773,-0.6784,-0.6784,-0.6784,0,0,0,0,0,0,0,0,0,0,0,0,0,-0.6747,-0.674,-0.6748,-0.6757,-0.6757,-0.6759,-0.676,-0.676,-0.6773,-0.6773,-0.6773,-0.6774,-0.6784,-0.6784,-0.6785,-0.6779,0,0,-0.6785,-0.6785,0,0,0,0,0,0,0,0,-0.6746,-0.6747,-0.6755,-0.6756,-0.6757,-0.6765,-0.6761,-0.6766,-0.6773,-0.6767,-0.6773,-0.6774,-0.6778,-0.6778,-0.678,-0.678,-0.678,-0.6785,-0.6785,-0.6785,-0.6785,0,0,0,0,0,0,0,-0.6746,-0.6746,-0.6753,-0.6755,-0.6756,-0.676,-0.6761,-0.6762,-0.677,-0.6767,-0.6768,-0.6769,-0.6778,-0.678,-0.678,-0.678,-0.6785,-0.6785,-0.6785,-0.6785,-0.6779,-0.6779,0,0,0,0,0,0,-0.6744,-0.6746,-0.6752,-0.6753,-0.6752,-0.676,-0.6761,-0.6762,-0.677,-0.6772,-0.6769,-0.677,-0.6779,-0.678,-0.678,-0.6776,-0.6785,-0.6785,-0.6785,-0.6779,-0.6779,-0.6778,0,0,0,0,0,0,-0.6744,-0.6744,-0.6752,-0.675,-0.6751,-0.676,-0.6761,-0.6762,-0.6764,-0.6772,-0.6773,-0.6769,-0.6779,-0.678,-0.678,-0.6776,-0.6785,-0.6785,-0.6779,-0.6779,-0.6779,-0.6766,0,0,0,0,0,0,-0.6743,-0.6744,-0.6742,-0.675,-0.6751,-0.6751,-0.676,-0.6762,-0.6764,-0.6765,-0.6772,-0.6773,-0.678,-0.678,-0.678,-0.6777,-0.6786,-0.678,-0.6779,-0.6779,-0.6767,-0.6765,-0.6764,0,0,0,0,0,-0.6743,-0.6737,-0.6742,-0.6742,-0.6748,-0.675,-0.6751,-0.6759,-0.6763,-0.6761,-0.6767,-0.6773,-0.6777,-0.6779,-0.678,-0.6777,-0.678,-0.6779,-0.6779,-0.6767,-0.6766,-0.6764,0,0,0,0,0,0,-0.6728,-0.6739,-0.6743,-0.674,-0.6744,-0.6753,-0.675,-0.6756,-0.6759,-0.676,-0.6769,-0.6771,-0.677,-0.6773,-0.6776,-0.6773,-0.6779,-0.6779,-0.6771,-0.6769,-0.6768,-0.6767,-0.6786,0,0,0,0,0,-0.6725,-0.6726,-0.6734,-0.6731,-0.6733,-0.6741,-0.6742,-0.6748,-0.6753,-0.6755,-0.676,-0.6765,-0.6767,-0.6768,-0.6771,-0.6768,-0.677,-0.6766,-0.6765,-0.6763,-0.6763,-0.6763,-0.6761,-0.6777,-0.6777,-0.6777,0,0,-0.6717,-0.6723,-0.6723,-0.6728,-0.6732,-0.6733,-0.6743,-0.6743,-0.6744,-0.6755,-0.6755,-0.6759,-0.6765,-0.6764,-0.6763,-0.6767,-0.6759,-0.6763,-0.6762,-0.6762,-0.6762,-0.6761,-0.6759,-0.6776,-0.6776,-0.6776,0,0,-0.6704,-0.6708,-0.6706,-0.671,-0.6717,-0.6723,-0.6722,-0.673,-0.6734,-0.6734,-0.6743,-0.6745,-0.6748,-0.6752,-0.6755,-0.6746,-0.6752,-0.6746,-0.6739,-0.6739,-0.6738,-0.6737,-0.6734,-0.6733,-0.6746,-0.6746,-0.6746,0,-0.6694,-0.6695,-0.6704,-0.6704,-0.6707,-0.6718,-0.6716,-0.672,-0.6727,-0.6728,-0.6732,-0.6738,-0.6743,-0.6743,-0.6741,-0.6743,-0.6743,-0.6745,-0.6737,-0.6736,-0.6735,-0.6733,-0.6732,-0.6745,-0.6745,-0.6745,-0.6745,0,-0.6683,-0.6684,-0.6682,-0.6689,-0.6691,-0.669,-0.67,-0.6701,-0.6707,-0.6713,-0.6715,-0.6721,-0.6725,-0.6726,-0.6731,-0.6728,-0.673,-0.6735,-0.6742,-0.6733,-0.6731,-0.673,-0.6744,-0.6744,-0.6745,-0.6745,0,0,-0.6659,-0.6672,-0.6671,-0.6675,-0.6684,-0.6685,-0.6686,-0.6691,-0.6693,-0.6697,-0.6699,-0.6702,-0.6708,-0.6711,-0.6717,-0.6717,-0.6711,-0.6723,-0.6723,-0.6721,-0.6709,-0.6705,-0.6703,-0.6716,-0.6716,-0.6715,-0.6709,0,-0.6647,-0.6649,-0.6658,-0.6657,-0.6659,-0.667,-0.6671,-0.6676,-0.6683,-0.6685,-0.6692,-0.6695,-0.6702,-0.6704,-0.6705,-0.6712,-0.6709,-0.6712,-0.6717,-0.6717,-0.6715,-0.6702,-0.6697,-0.669,-0.6708,-0.6708,-0.6707,0,-0.6634,-0.6639,-0.6638,-0.6648,-0.6649,-0.665,-0.6656,-0.6659,-0.6666,-0.6671,-0.6675,-0.6683,-0.6685,-0.6691,-0.6695,-0.6697,-0.67,-0.6704,-0.6704,-0.6705,-0.6711,-0.6703,-0.6688,-0.6687,-0.6706,-0.6706,-0.6706,0,-0.6617,-0.6623,-0.6624,-0.6627,-0.6639,-0.664,-0.6645,-0.6652,-0.6655,-0.6661,-0.6664,-0.6669,-0.6672,-0.6677,-0.6687,-0.669,-0.669,-0.6697,-0.6694,-0.6694,-0.6693,-0.6693,-0.6679,-0.6695,-0.6695,-0.6695,-0.6695,0,-0.6603,-0.6602,-0.6617,-0.6617,-0.6618,-0.6629,-0.6628,-0.6635,-0.6642,-0.6644,-0.6655,-0.6657,-0.6669,-0.6673,-0.6681,-0.6683,-0.6684,-0.6689,-0.6691,-0.6688,-0.6687,-0.6689,-0.669,-0.6694,-0.6694,-0.6694,-0.6695,0,-0.6584,-0.6594,-0.6596,-0.6607,-0.661,-0.661,-0.662,-0.6622,-0.6629,-0.6632,-0.6634,-0.6645,-0.6651,-0.6661,-0.6669,-0.6674,-0.6675,-0.6678,-0.6672,-0.6674,-0.6671,-0.6671,-0.6658,-0.6657,-0.6673,-0.6673,-0.6673,0,-0.6574,-0.6574,-0.6586,-0.6589,-0.6594,-0.6597,-0.6601,-0.6613,-0.6616,-0.6626,-0.6626,-0.6633,-0.6638,-0.6646,-0.6656,-0.6662,-0.6666,-0.6661,-0.6667,-0.6665,-0.6667,-0.6666,-0.6667,-0.666,-0.6659,-0.6659,-0.6659,0,-0.6556,-0.6562,-0.6566,-0.6573,-0.6577,-0.6583,-0.659,-0.6591,-0.6605,-0.6608,-0.6614,-0.6618,-0.6627,-0.6634,-0.6642,-0.6648,-0.6656,-0.6657,-0.6657,-0.6654,-0.6651,-0.6653,-0.6669,-0.6657,-0.6657,-0.6658,-0.6658,-0.6658,-0.6542,-0.6543,-0.6552,-0.6557,-0.6564,-0.657,-0.6572,-0.6581,-0.6586,-0.6594,-0.6601,-0.6606,-0.6616,-0.6628,-0.6634,-0.6639,-0.6642,-0.6642,-0.6642,-0.6642,-0.6641,-0.665,-0.664,-0.664,-0.6641,-0.6641,-0.6641,0,-0.6524,-0.6531,-0.6536,-0.6546,-0.655,-0.6558,-0.6566,-0.657,-0.6575,-0.6583,-0.6588,-0.6596,-0.6603,-0.6614,-0.6622,-0.6624,-0.6628,-0.6626,-0.6625,-0.6627,-0.6637,-0.6636,-0.6622,-0.6622,-0.6622,-0.6622,-0.6622,-0.6622,-0.6516,-0.6518,-0.6525,-0.6532,-0.6539,-0.6544,-0.6549,-0.6555,-0.6562,-0.657,-0.6576,-0.6583,-0.6593,-0.6602,-0.6609,-0.6612,-0.6615,-0.6611,-0.6616,-0.6624,-0.6626,-0.6628,-0.6627,-0.6612,-0.6612,-0.6606,-0.6605,-0.6605]}]]